Regional Weather Roundup
Issued by NWS

Home | Current Version | Previous Version | Graphics & Text | Print | Product List | Glossary On
Versions: 1 2 3 4 5 6 7 8 9 10 11 12 13 14 15 16 17 18 19 20 21 22 23 24 25 26 27 28 29 30 31 32 33 34 35 36 37 38 39 40 41 42 43 44 45 46 47 48 49 50
000
ASUS43 KIND 270409
RWRIN

WEATHER ROUNDUP FOR INDIANA
NATIONAL WEATHER SERVICE INDIANAPOLIS IN
1200 AM EDT MON MAR 27 2017

NOTE: "FAIR" INDICATES FEW OR NO CLOUDS BELOW 12,000 FEET WITH NO
SIGNIFICANT WEATHER AND/OR OBSTRUCTIONS TO VISIBILITY.

* - STATION DOES NOT REPORT WEATHER SUCH AS PRECIPITATION OR FOG.

+ - STATION NOT QUALITY CONTROLLED BY THE NATIONAL WEATHER SERVICE.
    USE DATA WITH CAUTION...ESPECIALLY DEWPOINT AND RELATIVE
    HUMIDITY OBSERVATIONS.

INZ001>003-010>013-019-020-270500-
NORTHWEST INDIANA

CITY           SKY/WX    TMP DP  RH WIND       PRES   REMARKS
GARY /AIRPORT/ CLOUDY    54  49  83 SW6       29.90S
KNOX *+        CLOUDY    52  39  62 SW9       29.91S
LA PORTE +     CLOUDY    52  50  93 SW8       29.91R
MICHIGAN CITY+ CLOUDY    52  52 100 SW9       29.91R
MONTICELLO +   CLOUDY    52  51  95 W6        29.92F
RENSSELAER +   CLOUDY    52  50  93 SW12      29.92F
VALPARAISO     CLOUDY    53  51  93 W14       29.91R

$$

LMZ046-743>745-270500-
SOUTHERN LAKE MICHIGAN

STATION/POSITION TIME  TEMP    WIND        PRES    WAVE
                       AIR SEA DIR/SP/G            HT
                 (UTC) (F)     (DEG/KT/KT) (MB)    (FT)
BURNS HARBOR     0340   53     230/ 10/ 13 1012.9R
MICHIGAN CITY    0340   52     220/ 10/ 10   N/A

$$

INZ004-005-014>016-021>024-270500-
NORTH CENTRAL INDIANA

CITY           SKY/WX    TMP DP  RH WIND       PRES   REMARKS
GOSHEN         MOCLDY    53  49  86 W9        29.89S
LOGANSPORT +   CLOUDY    52  50  93 W13G18    29.93F FOG
PERU/GRISSOM   CLOUDY    54  54 100 W12       29.91F
ROCHESTER +    CLOUDY    55  52  88 W10       29.92S
SOUTH BEND     CLOUDY    52  51  97 SW8       29.90R
WARSAW +       CLOUDY    54  50  87 W13       29.91R

$$

INZ006>009-017-018-025>027-270500-
NORTHEAST INDIANA

CITY           SKY/WX    TMP DP  RH WIND       PRES   REMARKS
ANGOLA *+      CLOUDY    52  46  82 SW3       29.89S
AUBURN +       DRIZZLE   54  52  94 SW8       29.91R
FORT WAYNE     CLOUDY    54  51  90 SW10      29.91S
HUNTINGTON +   CLOUDY    54  51  91 W9        29.92S
KENDALLVILLE + CLOUDY    53  53 100 SW6       29.90S FOG

$$

INZ028-029-035-036-043>045-051>053-270500-
WEST CENTRAL INDIANA

CITY           SKY/WX    TMP DP  RH WIND       PRES   REMARKS
CRAWFORDSVL +  MOCLDY    50  49  96 SW8       29.95S
GREENCASTLE +  CLEAR     50  46  87 CALM      29.96F
LAFAYETTE      CLOUDY    52  52 100 W7        29.93F FOG
TERRE HAUTE    CLEAR     50  46  86 SW5       29.96S

$$

INZ030>032-037>040-046>048-054>057-064-065-270500-
CENTRAL INDIANA

CITY           SKY/WX    TMP DP  RH WIND       PRES   REMARKS
CP ATTERBURY + CLEAR     54  46  76 W6        29.97F
FISHERS *+     MOCLDY    54  50  87 SW6       29.96R
FRANKFORT +    CLOUDY    56  52  89 W8        29.95F
GREENWOOD *+   CLEAR     55  49  80 W7        29.97S
INDIANAPOLIS   MOCLDY    53  48  83 SW12      29.96R
-EAGLE CREEK   MOCLDY    55  48  77 SW6       29.95R
KOKOMO +       CLOUDY    54  51  90 W12       29.94S
MARION +       CLOUDY    53  50  92 SW10      29.94F
MT COMFORT *+  CLEAR     52  48  87 SW8       29.96S
SHELBYVILLE    CLEAR     53  47  79 S6        29.96R
ZIONSVILLE +   PTCLDY    52  48  89 SW7       29.95S

$$

INZ033-034-041-042-049-050-058-059-270500-
EAST CENTRAL INDIANA

CITY           SKY/WX    TMP DP  RH WIND       PRES   REMARKS
MUNCIE         CLOUDY    56  49  77 W8        29.94S
RICHMOND +     CLEAR     50  48  93 W8        29.96S

$$

INZ060-061-067>069-081>083-085>088-270500-
SOUTHWEST INDIANA

CITY           SKY/WX    TMP DP  RH WIND       PRES   REMARKS
EVANSVILLE     CLOUDY    52  46  80 CALM      29.99F
HUNTINGBURG *+ CLOUDY    50  47  89 CALM      29.99F
WASHINGTON +   PTCLDY    51  47  87 MISG      29.97F

$$

INZ062-063-066-070>080-084-089>092-270500-
SOUTH CENTRAL AND SOUTHEAST INDIANA

CITY           SKY/WX    TMP DP  RH WIND       PRES   REMARKS
BEDFORD +      CLOUDY    54  46  76 SW3       29.98S
BLOOMINGTON    PTCLDY    53  47  79 SW6       29.97S
MADISON *+     CLOUDY    54  48  82 CALM      30.01S
NORTH VERNON + CLOUDY   N/A N/A N/A SW3       29.98S
SEYMOUR +      PTCLDY    54  48  82 SW5       29.98F

$$




USA.gov is the U.S. government's official web portal to all federal, state and local government web resources and services.